Regional Weather Roundup
Issued by NWS

Home | Current Version | Previous Version | Text Only | Print | Product List | Glossary Off
Versions: 1 2 3 4 5 6 7 8 9 10 11 12 13 14 15 16 17 18 19 20 21 22 23 24 25 26 27 28 29 30 31 32 33 34 35 36 37 38 39 40 41 42 43 44 45 46 47 48 49 50

000
ASUS43 KMPX 210510
RWRMN
WEATHER ROUNDUP FOR MINNESOTA
NATIONAL WEATHER SERVICE TWIN CITIES/CHANHASSEN MN
1200 AM CDT SAT OCT 21 2017


NOTE: "FAIR" INDICATES FEW OR NO CLOUDS BELOW 12,000 FEET WITH NO
SIGNIFICANT WEATHER AND/OR OBSTRUCTIONS TO VISIBILITY. N/A MEANS
CURRENT SKY AND/OR WEATHER CONDITIONS ARE NOT AVAILABLE.

MNZ060>063-068>070-210600-
   Twin Cities Metro

CITY           SKY/WX    TMP DP  RH WIND       PRES   REMARKS
TWIN CITIES    CLOUDY    67  53  61 S15G24    29.74R
ST PAUL        LGT RAIN  64  53  67 S18       29.75R
CRYSTAL        CLOUDY    66  49  54 S15G24    29.71S
BLAINE         CLOUDY    68  52  56 S16       29.72F
LAKEVILLE      LGT RAIN  63  54  72 S14G22    29.74R
EDEN PRAIRIE   PTCLDY    67  53  61 S17G26    29.71S
SOUTH ST PAUL  CLOUDY    66  50  55 S9G17     29.75R
LAKE ELMO      FAIR      64  50  59 S15       29.76S
$$
MNZ001>005-007-008-013>017-022>024-027-028-210600-
   Northwest Minnesota

CITY           SKY/WX    TMP DP  RH WIND       PRES   REMARKS
BEMIDJI        CLOUDY    66  51  59 S22       29.54F
HALLOCK        CLOUDY    70  54  56 S23G31    29.35F
ROSEAU         CLOUDY    70  55  60 S17       29.44S
WARROAD        MOCLDY    64  54  68 S8        29.46S
THIEF RVR FALL MOCLDY    68  54  60 S21G31    29.44F
CROOKSTON      MOCLDY    70  55  60 S28G36    29.41S
FOSSTON        CLOUDY    66  52  59 S22G29    29.48F
DETROIT LAKES  PTCLDY    64  54  68 S18G31    29.52S
MOORHEAD       MOCLDY    66  55  68 S24G31    29.43F
PARK RAPIDS    PTCLDY    65  52  62 S20G32    29.56F
MAHNOMEN       FAIR      67  55  65 S16G25    29.47F
$$
MNZ006-009>011-018-025>026-210600-
   North Central Minnesota

CITY           SKY/WX    TMP DP  RH WIND       PRES   REMARKS
BAUDETTE       CLOUDY    68  50  52 S20G29    29.50F
FLAG ISLAND    CLOUDY    57  50  77 SE17      29.46S
INTL FALLS     MOCLDY    67  46  47 S12G21    29.58R
WASKISH        CLOUDY    68  52  56 S14G22    29.53S
BIG FORK       MOCLDY    64  46  52 S13G18    29.61S
LONGVILLE      CLOUDY    64  48  55 S16G26    29.61S
GRAND RAPIDS   MOCLDY    64  47  53 S17G24    29.65F
CRANE LAKE     MOCLDY    64  43  45 S10G20    29.65F
ORR            PTCLDY    64  41  42 S16G22    29.62F
COOK           PTCLDY    64  45  48 S13G21    29.66F
WALKER         FAIR      66  51  57 S17G25    29.57S
$$
MNZ012-019>021-037-210600-
   Northeast Minnesota

CITY           SKY/WX    TMP DP  RH WIND       PRES   REMARKS
DULUTH         CLOUDY    62  46  55 S15G24    29.73S
ELY            CLOUDY    63  41  45 S14G21    29.70S
HIBBING        MOCLDY    62  43  49 S7G17     29.68S
EVELETH        CLOUDY    63  31  30 S10       29.71S
DULUTH HARBOR  CLOUDY    64  48  55 S8        29.72F
TWO HARBORS    MOCLDY    59  48  67 CALM      29.72F
SILVER BAY     CLOUDY    48  45  87 CALM      29.73F
GRAND MARAIS     N/A     51  47  86 NE3       29.76S
G MARAIS ARPRT PTCLDY    57  39  51 S8        29.80S
$$
MNZ029>031-032-039>041-046>048-054>057-064-210600-
   West Central Minnesota

CITY           SKY/WX    TMP DP  RH WIND       PRES   REMARKS
FERGUS FALLS   CLOUDY    66  55  68 S21G26    29.49F
WHEATON        CLEAR     66  55  68 SE18G24   29.47F
MORRIS         CLOUDY    68  57  68 S22       29.51F
ALEXANDRIA     CLOUDY    66  55  67 S21G32    29.58F
ELBOW LAKE     CLOUDY    65  56  73 SE21G28   29.52F
WADENA         PTCLDY    64  54  68 S21G26    29.56F
GLENWOOD       CLOUDY    66  55  68 S21G30    29.58F
APPLETON       CLOUDY    70  55  60 S16G24    29.52F
BENSON         MOCLDY    68  55  64 S21G26    29.56F
ORTONVILLE     PTCLDY    68  57  68 N16G24    29.49S
MADISON        CLOUDY    72  59  64 S16G26    29.52F
WILLMAR        FAIR      66  55  68 S17G23    29.62F
$$
MNZ033>034-036-042>043-049>051-058-059-210600-
   Central Minnesota

CITY           SKY/WX    TMP DP  RH WIND       PRES   REMARKS
ST CLOUD       CLOUDY    65  52  62 S22G31    29.66S
SAUK CENTRE    FAIR      63  53  69 S15G25    29.61F
PAYNESVILLE    CLOUDY    65  54  68 SE17G25   29.63F
AITKIN         CLOUDY    63  46  55 S13G18    29.64F
PINE RIVER     CLOUDY    63  48  59 S13       29.64F
BRAINERD       CLOUDY    64  49  57 S17G29    29.64S
STAPLES        PTCLDY    64  50  59 S15G21    29.59F
LONG PRAIRIE   FAIR      63  52  67 SE20G30   29.61F
LITTLE FALLS   MOCLDY    64  43  45 S17       29.64F
LITCHFIELD     CLOUDY    66  55  68 S13G21    29.66S
BUFFALO        PTCLDY    65  51  59 S10G18    29.70S
MAPLE LAKE     CLOUDY    66  54  65 S9G16     29.70S
HUTCHINSON     CLOUDY    65  55  68 S10G18    29.69S
$$
MNZ037-044-045-052-053-210600-
   East Central Minnesota

CITY           SKY/WX    TMP DP  RH WIND       PRES   REMARKS
PRINCETON      CLOUDY    66  52  59 SE14G20   29.69S
MORA           PTCLDY    63  46  55 S10       29.72S
CAMBRIDGE      PTCLDY    66  52  59 SE12      29.71S
RUSH CITY      CLOUDY    64  49  57 S14       29.72S
MOOSE LAKE     CLEAR     63  45  51 S7        29.69S
HINCKLEY       MOCLDY    64  48  55 S12       29.72S
CLOQUET        CLEAR     64  43  45 S12G20    29.72S
MCGREGOR       PTCLDY    63  46  55 S10       29.68S
$$
MNZ071>073-080-081-089-090-097-098-210600-
   Southwest Minnesota

CITY           SKY/WX    TMP DP  RH WIND       PRES   REMARKS
MONTEVIDEO     CLOUDY    66  55  68 S16G22    29.56F
GRANITE FALLS  CLOUDY    68  58  71 SE20G26   29.59F
CANBY          MOCLDY    69  58  66 S14G26    29.53F
MARSHALL       CLOUDY    67  57  70 S23G32    29.56F
REDWOOD FALLS  CLOUDY    65  54  67 S20       29.62S
OLIVIA         PTCLDY    64  54  68 S20G25    29.62F
PIPESTONE      MOCLDY    64  55  72 S22G30    29.58F
WORTHINGTON    MOCLDY    64  56  75 S22G30    29.65S
JACKSON        CLOUDY    63  54  72 S23G29    29.69F
TRACY          CLOUDY    67  58  74 S21G29    29.60F
SLAYTON        MOCLDY    64  57  77 S18G29    29.62F
$$
MNZ065>067-074>077-082>085-091>093-210600-
   South Central Minnesota

CITY           SKY/WX    TMP DP  RH WIND       PRES   REMARKS
MANKATO        PTCLDY    65  54  67 S17G28    29.71F
NEW ULM        CLOUDY    64  54  68 S20G31    29.67S
ST JAMES       CLOUDY    64  55  72 SE29G37   29.68F
FAIRMONT       CLOUDY    64  55  72 S25G35    29.70F
GLENCOE        CLOUDY    66  53  63 S15G22    29.68F
FARIBAULT      MOCLDY    63  54  72 S15G22    29.76S
OWATONNA       CLOUDY    63  52  67 S18G25    29.76F
WASECA         CLOUDY    63  52  67 S20G26    29.76F
$$
MNZ078>079-086>088-094>096-210600-
   Southeast Minnesota

CITY           SKY/WX    TMP DP  RH WIND       PRES   REMARKS
ROCHESTER      CLOUDY    62  49  62 S24G32    29.81F
RED WING       PTCLDY    66  45  45 S9G20     29.78R
STANTON        CLOUDY    65  51  60 S15G23    29.75R
DODGE CENTER   CLOUDY    63  48  59 S24       29.80R
WINONA         PTCLDY    68  46  45 S13G20    29.84S
AUSTIN         CLOUDY    63  48  59 S17G26    29.81S
PRESTON        CLOUDY    61  47  59 S14G24    29.84F
$$
ABBREVIATIONS USED IN REMARKS
   TC - TEMPERATURES IN CELSIUS
  WCI - WIND CHILL INDEX
   HX - HEAT INDEX
  VSB - VISIBILITY
$$



USA.gov is the U.S. government's official web portal to all federal, state and local government web resources and services.